When you browse on this site, cookies collect data to enhance your experience and personalize the content and advertising you see.
Visit our Privacy Policy to learn more. By continuing to use the site, you agree to this use of cookies and data.
  • In Latvia
  • List of Countries
  • For 7 days
  • Water Temperature
  • Satellite Maps
  • Weather Map
  • Weather Widgets
  • user-avatar
    Login

    Hourly Weather Malanville

    Today, 18 January, Friday

    Time Temperature Precipitation Wind Pressure Humidity
    00:00 +26°C° 0 mm 2 mps 744 mmHg 10%
    01:00 +26°C° 0 mm 2 mps 744 mmHg 11%
    02:00 +25°C° 0 mm 2 mps 743 mmHg 11%
    03:00 +25°C° 0 mm 2 mps 743 mmHg 11%
    04:00 +24°C° 0 mm 2 mps 743 mmHg 11%
    05:00 +24°C° 0 mm 2 mps 743 mmHg 12%
    06:00 +24°C° 0 mm 2 mps 744 mmHg 12%
    07:00 +26°C° 0 mm 3 mps 744 mmHg 11%
    08:00 +29°C° 0 mm 3 mps 744 mmHg 9%
    09:00 +33°C° 0 mm 4 mps 745 mmHg 8%
    10:00 +35°C° 0 mm 4 mps 744 mmHg 8%
    11:00 +38°C° 0 mm 4 mps 744 mmHg 7%
    12:00 +41°C° 0 mm 4 mps 743 mmHg 7%
    13:00 +42°C° 0 mm 4 mps 743 mmHg 7%
    14:00 +42°C° 0 mm 3 mps 742 mmHg 7%
    15:00 +43°C° 0 mm 3 mps 741 mmHg 7%
    16:00 +39°C° 0 mm 3 mps 741 mmHg 8%
    17:00 +37°C° 0 mm 2 mps 742 mmHg 10%
    18:00 +34°C° 0 mm 2 mps 742 mmHg 11%
    19:00 +32°C° 0 mm 2 mps 742 mmHg 12%
    20:00 +31°C° 0 mm 1 mps 743 mmHg 13%
    21:00 +30°C° 0 mm 1 mps 743 mmHg 14%
    22:00 +29°C° 0 mm 2 mps 743 mmHg 14%
    23:00 +29°C° 0 mm 2 mps 743 mmHg 14%

    Tomorrow, 19 January, Saturday

    Time Temperature Precipitation Wind Pressure Humidity
    00:00 +29°C° 0 mm 2 mps 743 mmHg 14%
    01:00 +28°C° 0 mm 2 mps 743 mmHg 14%
    02:00 +27°C° 0 mm 2 mps 743 mmHg 15%
    03:00 +27°C° 0 mm 2 mps 742 mmHg 15%
    04:00 +26°C° 0 mm 3 mps 743 mmHg 15%
    05:00 +26°C° 0 mm 3 mps 743 mmHg 16%
    06:00 +26°C° 0 mm 3 mps 743 mmHg 16%
    07:00 +28°C° 0 mm 4 mps 744 mmHg 15%
    08:00 +32°C° 0 mm 4 mps 744 mmHg 13%
    09:00 +35°C° 0 mm 4 mps 745 mmHg 12%
    10:00 +37°C° 0 mm 4 mps 744 mmHg 13%
    11:00 +40°C° 0 mm 4 mps 744 mmHg 13%
    12:00 +42°C° 0 mm 4 mps 743 mmHg 14%
    13:00 +42°C° 0 mm 3 mps 743 mmHg 14%
    14:00 +41°C° 0 mm 2 mps 742 mmHg 13%
    15:00 +42°C° 0 mm 2 mps 741 mmHg 13%
    16:00 +39°C° 0 mm 1 mps 742 mmHg 15%
    17:00 +36°C° 0 mm 1 mps 742 mmHg 18%
    18:00 +32°C° 0 mm 0 mps 742 mmHg 20%
    19:00 +33°C° 0 mm 1 mps 742 mmHg 21%
    20:00 +32°C° 0 mm 1 mps 743 mmHg 21%
    21:00 +31°C° 0 mm 1 mps 743 mmHg 21%
    22:00 +31°C° 0 mm 2 mps 743 mmHg 21%
    23:00 +31°C° 0 mm 2 mps 743 mmHg 20%

    Day after tomorrow, 20 January, Sunday

    Time Temperature Precipitation Wind Pressure Humidity
    00:00 +30°C° 0 mm 3 mps 743 mmHg 20%
    01:00 +30°C° 0 mm 3 mps 743 mmHg 18%
    02:00 +29°C° 0 mm 3 mps 743 mmHg 16%
    03:00 +28°C° 0 mm 4 mps 743 mmHg 15%
    04:00 +27°C° 0 mm 4 mps 743 mmHg 14%
    05:00 +26°C° 0 mm 4 mps 743 mmHg 12%
    06:00 +26°C° 0 mm 4 mps 744 mmHg 11%
    07:00 +28°C° 0 mm 4 mps 744 mmHg 10%
    08:00 +30°C° 0 mm 5 mps 745 mmHg 9%
    09:00 +33°C° 0 mm 5 mps 746 mmHg 8%
    10:00 +36°C° 0 mm 4 mps 745 mmHg 8%
    11:00 +38°C° 0 mm 4 mps 745 mmHg 7%
    12:00 +40°C° 0 mm 3 mps 744 mmHg 7%
    13:00 +40°C° 0 mm 3 mps 743 mmHg 8%
    14:00 +42°C° 0 mm 3 mps 742 mmHg 8%
    15:00 +42°C° 0 mm 3 mps 742 mmHg 9%
    16:00 +39°C° 0 mm 3 mps 742 mmHg 11%
    17:00 +38°C° 0 mm 3 mps 742 mmHg 12%
    18:00 +36°C° 0 mm 3 mps 742 mmHg 14%
    19:00 +34°C° 0 mm 3 mps 743 mmHg 14%
    20:00 +33°C° 0 mm 4 mps 744 mmHg 13%
    21:00 +32°C° 0 mm 4 mps 744 mmHg 13%
    22:00 +30°C° 0 mm 4 mps 744 mmHg 13%
    23:00 +29°C° 0 mm 4 mps 744 mmHg 12%

    21 January, Monday

    Time Temperature Precipitation Wind Pressure Humidity
    00:00 +28°C° 0 mm 4 mps 744 mmHg 12%
    01:00 +27°C° 0 mm 3 mps 743 mmHg 12%
    02:00 +27°C° 0 mm 3 mps 743 mmHg 12%
    03:00 +26°C° 0 mm 3 mps 743 mmHg 12%
    04:00 +25°C° 0 mm 3 mps 743 mmHg 11%
    05:00 +25°C° 0 mm 3 mps 744 mmHg 11%
    06:00 +24°C° 0 mm 3 mps 744 mmHg 11%
    07:00 +27°C° 0 mm 3 mps 745 mmHg 10%
    08:00 +29°C° 0 mm 4 mps 745 mmHg 8%
    09:00 +33°C° 0 mm 4 mps 746 mmHg 7%
    10:00 +35°C° 0 mm 4 mps 745 mmHg 6%
    11:00 +37°C° 0 mm 4 mps 745 mmHg 6%
    12:00 +39°C° 0 mm 3 mps 744 mmHg 6%
    13:00 +39°C° 0 mm 3 mps 743 mmHg 6%
    14:00 +40°C° 0 mm 3 mps 742 mmHg 7%
    15:00 +40°C° 0 mm 3 mps 742 mmHg 7%
    16:00 +39°C° 0 mm 3 mps 742 mmHg 8%
    17:00 +37°C° 0 mm 3 mps 742 mmHg 9%
    18:00 +35°C° 0 mm 3 mps 742 mmHg 10%
    19:00 +33°C° 0 mm 3 mps 743 mmHg 10%
    20:00 +31°C° 0 mm 3 mps 744 mmHg 10%
    21:00 +30°C° 0 mm 3 mps 744 mmHg 10%
    22:00 +30°C° 0 mm 3 mps 744 mmHg 10%
    23:00 +29°C° 0 mm 3 mps 744 mmHg 10%

    22 January, Tuesday

    Time Temperature Precipitation Wind Pressure Humidity
    00:00 +28°C° 0 mm 3 mps 743 mmHg 10%
    01:00 +27°C° 0 mm 3 mps 743 mmHg 10%
    02:00 +27°C° 0 mm 3 mps 743 mmHg 10%
    03:00 +26°C° 0 mm 3 mps 742 mmHg 10%
    04:00 +25°C° 0 mm 3 mps 743 mmHg 10%
    05:00 +25°C° 0 mm 2 mps 743 mmHg 10%
    06:00 +24°C° 0 mm 2 mps 744 mmHg 10%
    07:00 +27°C° 0 mm 2 mps 744 mmHg 9%
    08:00 +30°C° 0 mm 3 mps 745 mmHg 7%
    09:00 +33°C° 0 mm 3 mps 745 mmHg 6%
    10:00 +35°C° 0 mm 3 mps 745 mmHg 6%
    11:00 +38°C° 0 mm 3 mps 744 mmHg 5%
    12:00 +40°C° 0 mm 3 mps 744 mmHg 5%
    13:00 +40°C° 0 mm 3 mps 743 mmHg 5%
    14:00 +42°C° 0 mm 3 mps 742 mmHg 6%
    15:00 +42°C° 0 mm 3 mps 741 mmHg 6%
    16:00 +39°C° 0 mm 3 mps 741 mmHg 7%
    17:00 +37°C° 0 mm 2 mps 742 mmHg 8%
    18:00 +34°C° 0 mm 2 mps 742 mmHg 9%
    19:00 +33°C° 0 mm 3 mps 742 mmHg 9%
    20:00 +33°C° 0 mm 3 mps 743 mmHg 10%
    21:00 +31°C° 0 mm 3 mps 743 mmHg 10%
    22:00 +30°C° 0 mm 3 mps 743 mmHg 10%
    23:00 +29°C° 0 mm 3 mps 743 mmHg 11%

    23 January, Wednesday

    Time Temperature Precipitation Wind Pressure Humidity
    00:00 +28°C° 0 mm 3 mps 743 mmHg 11%
    01:00 +27°C° 0 mm 3 mps 743 mmHg 11%
    02:00 +26°C° 0 mm 3 mps 742 mmHg 11%
    03:00 +26°C° 0 mm 3 mps 742 mmHg 12%
    04:00 +25°C° 0 mm 3 mps 742 mmHg 12%
    05:00 +25°C° 0 mm 3 mps 743 mmHg 11%
    06:00 +24°C° 0 mm 3 mps 743 mmHg 11%
    07:00 +27°C° 0 mm 3 mps 744 mmHg 10%
    08:00 +30°C° 0 mm 3 mps 744 mmHg 8%
    09:00 +33°C° 0 mm 3 mps 745 mmHg 6%
    10:00 +35°C° 0 mm 3 mps 744 mmHg 6%
    11:00 +37°C° 0 mm 3 mps 744 mmHg 5%
    12:00 +39°C° 0 mm 2 mps 743 mmHg 5%
    13:00 +40°C° 0 mm 2 mps 743 mmHg 5%
    14:00 +40°C° 0 mm 2 mps 742 mmHg 5%
    15:00 +41°C° 0 mm 2 mps 741 mmHg 5%
    16:00 +39°C° 0 mm 2 mps 741 mmHg 6%
    17:00 +37°C° 0 mm 2 mps 741 mmHg 6%
    18:00 +35°C° 0 mm 3 mps 741 mmHg 7%
    19:00 +33°C° 0 mm 3 mps 742 mmHg 7%
    20:00 +31°C° 0 mm 3 mps 742 mmHg 8%
    21:00 +30°C° 0 mm 4 mps 743 mmHg 8%
    22:00 +29°C° 0 mm 3 mps 743 mmHg 8%
    23:00 +28°C° 0 mm 3 mps 742 mmHg 9%
    Show more